Hourly Data Report for October 14, 2015

All times are specified in Local Standard Time (LST). Add 1 hour to adjust for Daylight Saving Time where and when it is observed.

PENTICTON A
BRITISH COLUMBIA

49°27'45.000" N
119°36'08.000" W
344.40 m
1126146
71889
YYF

Download Data

Hourly Data (October 2015)
Hourly Data Report for October 14, 2015
Temp Definition
°C
Dew Point Temp Definition
°C
Rel Hum Definition
%
Wind Dir Definition
10's deg

Wind Spd Definition
km/h
Visibility Definition
km
Stn Press Definition
kPa
Hmdx Definition


Wind Chill Definition


Weather Definition


TIME
00:00 Legend Double Dagger 5.4 -1.7 60 34 14 32.2 98.26     LegendNANA
01:00 Legend Double Dagger 4.1 -1.9 65 36 10 24.1 98.32     Clear
02:00 Legend Double Dagger 4.6 -1.6 64 1 17 24.1 98.34     LegendNANA
03:00 Legend Double Dagger 4.1 -1.5 67 35 10 24.1 98.36     LegendNANA
04:00 Legend Double Dagger 3.7 -2.1 66 1 12 24.1 98.41     Clear
05:00 Legend Double Dagger 3.7 -1.1 71 1 15 24.1 98.48     LegendNANA
06:00 Legend Double Dagger 2.1 -2.1 74 2 11 24.1 98.49     LegendNANA
07:00 Legend Double Dagger 2.3 -1.7 75 33 8 24.1 98.53     Mainly Clear
08:00 Legend Double Dagger 8.8 2.2 63 35 11 24.1 98.57     LegendNANA
09:00 Legend Double Dagger 10.3 3.6 63 35 15 24.1 98.62     LegendNANA
10:00 Legend Double Dagger 11.6 4.6 62 36 15 24.1 98.61     Mainly Clear
11:00 Legend Double Dagger 12.6 4.4 57 35 17 24.1 98.57     LegendNANA
12:00 Legend Double Dagger 13.6 3.7 51 34 16 24.1 98.51     LegendNANA
13:00 Legend Double Dagger 14.6 4.4 50 1 18 24.1 98.49     Mainly Clear
14:00 Legend Double Dagger 15.6 4.4 47 2 13 24.1 98.40     LegendNANA
15:00 Legend Double Dagger 15.4 4.8 49 36 14 24.1 98.37     LegendNANA
16:00 Legend Double Dagger 14.9 4.7 50 33 10 24.1 98.35     Mostly Cloudy
17:00 Legend Double Dagger 11.6 5.3 65 33 10 24.1 98.31     LegendNANA
18:00 Legend Double Dagger 9.8 3.6 65 1 10 24.1 98.36     LegendNANA
19:00 Legend Double Dagger 8.6 2.0 63 35 14 24.1 98.43     Mainly Clear
20:00 Legend Double Dagger 8.6 2.0 63 35 14 24.1 98.47     LegendNANA
21:00 Legend Double Dagger 8.1 0.4 58 35 16 24.1 98.50     LegendNANA
22:00 Legend Double Dagger 5.8 0.2 67 36 12 24.1 98.55     Clear
23:00 Legend Double Dagger 6.4 0.5 66 36 16 24.1 98.56     LegendNANA

Notes on Data Quality.

Legend

  • E = Estimated
  • M = Missing
  • NA = Not Available
  • ‡ = Partner data that is not subject to review by the National Climate Archives
Date modified: